Location: Buckeye Ditch
(40.9104°N, 122.9517°W)
Time: 18:39:32
(UTC+00:00)

BlueWalker 3 - Pass Details

Date: 01 July 2024
Orbit: 480 x 491 km, 53.2° (Epoch: 23 July)

Event Time Altitude Azimuth Distance (km) Brightness Sun altitude
Rises 05:23:54 0° 313° (NW) 2,543 7.4 -14.6°
Reaches altitude 10° 05:26:40 10° 334° (NNW) 1,660 5.8 -14.9°
Maximum altitude 05:29:11 17° 17° (NNE) 1,282 4.4 -15.2°
Drops below altitude 10° 05:31:43 10° 60° (ENE) 1,655 4.5 -15.5°
Enters shadow 05:33:06 - 73° (ENE) 2,068 4.8 -15.7°
